owner,sensor,date,latitude,longitude,vertical_datum,direction_of_sea_water_velocity,sea_water_speed,upward_sea_water_velocity,qcFlag 
ADCP,ioos:station:wmo:42387:1,2014-05-01T00:59:00Z,28.2670,-88.3990,79.6,338.0,10.2,-5.1,'1111122,1111122,1111122' 
ADCP,ioos:station:wmo:42387:1,2014-05-01T01:59:00Z,28.2670,-88.3990,79.6,317.0,7.8,-3.1,'1111122,1111122,1111122' 
ADCP,ioos:station:wmo:42387:1,2014-05-01T02:59:00Z,28.2670,-88.3990,79.6,307.0,8.9,-4.0,'1111122,1111122,1111122' 
ADCP,ioos:station:wmo:42387:1,2014-05-01T03:59:00Z,28.2670,-88.3990,79.6,298.0,7.5,-3.4,'1111122,1111122,1111122' 
ADCP,ioos:station:wmo:42387:1,2014-05-01T05:59:00Z,28.2670,-88.3990,79.6,308.0,6.2,-2.6,'1111122,1111122,1111122' 
ADCP,ioos:station:wmo:42387:1,2014-05-01T06:59:00Z,28.2670,-88.3990,79.7,320.0,5.4,-2.1,'1111122,1111122,1111122' 
ADCP,ioos:station:wmo:42387:1,2014-05-01T07:59:00Z,28.2670,-88.3990,79.7,317.0,2.3,-0.6,'1111122,1111122,1111122' 
ADCP,ioos:station:wmo:42387:1,2014-05-01T09:59:00Z,28.2670,-88.3990,79.7,224.0,2.8,-0.9,'1111122,1111122,1111122' 
ADCP,ioos:station:wmo:42387:1,2014-05-01T11:59:00Z,28.2670,-88.3990,79.7,86.0,4.2,-0.7,'1111122,1111122,1111122' 
ADCP,ioos:station:wmo:42387:1,2014-05-01T12:59:00Z,28.2670,-88.3990,79.6,114.0,5.2,-0.2,'1111122,1111122,1111122' 
ADCP,ioos:station:wmo:42387:1,2014-05-01T13:59:00Z,28.2670,-88.3990,79.6,155.0,4.3,-1.2,'1111122,1111122,1111122' 
ADCP,ioos:station:wmo:42387:1,2014-05-01T14:59:00Z,28.2670,-88.3990,79.6,152.0,6.0,-1.8,'1111122,1111122,1111122' 
ADCP,ioos:station:wmo:42387:1,2014-05-01T15:59:00Z,28.2670,-88.3990,79.6,173.0,9.3,-1.5,'1111122,1111122,1111122' 
ADCP,ioos:station:wmo:42387:1,2014-05-01T16:59:00Z,28.2670,-88.3990,79.6,193.0,7.2,-1.1,'1111122,1111122,1111122' 
ADCP,ioos:station:wmo:42387:1,2014-05-01T17:59:00Z,28.2670,-88.3990,79.6,219.0,6.4,-2.3,'1111122,1111122,1111122' 
ADCP,ioos:station:wmo:42387:1,2014-05-01T18:59:00Z,28.2670,-88.3990,79.6,256.0,2.5,-4.6,'1111122,1111122,1111122' 
ADCP,ioos:station:wmo:42387:1,2014-05-01T19:59:00Z,28.2670,-88.3990,79.6,311.0,4.6,-4.7,'1111122,1111122,1111122' 
ADCP,ioos:station:wmo:42387:1,2014-05-01T20:59:00Z,28.2670,-88.3990,79.6,309.0,7.7,-5.1,'1111122,1111122,1111122' 
ADCP,ioos:station:wmo:42387:1,2014-05-01T21:59:00Z,28.2670,-88.3990,79.6,333.0,4.4,-5.5,'1111122,1111122,1111122' 
ADCP,ioos:station:wmo:42387:1,2014-05-01T22:59:00Z,28.2670,-88.3990,79.6,322.0,6.6,-6.7,'1111122,1111122,1111122' 
ADCP,ioos:station:wmo:42387:1,2014-05-01T23:59:00Z,28.2670,-88.3990,79.6,331.0,8.2,-6.1,'1111122,1111122,1111122' 
ADCP,ioos:station:wmo:42387:1,2014-05-02T00:59:00Z,28.2670,-88.3990,79.6,341.0,22.6,-7.7,'1111122,1111122,1111122' 
ADCP,ioos:station:wmo:42387:1,2014-05-02T01:59:00Z,28.2670,-88.3990,79.6,352.0,20.8,-5.5,'1111122,1111122,1111122' 
ADCP,ioos:station:wmo:42387:1,2014-05-02T02:59:00Z,28.2670,-88.3990,79.6,350.0,17.2,-5.2,'1111122,1111122,1111122' 
ADCP,ioos:station:wmo:42387:1,2014-05-02T03:59:00Z,28.2670,-88.3990,79.6,352.0,11.3,-4.4,'1111122,1111122,1111122' 
ADCP,ioos:station:wmo:42387:1,2014-05-02T04:59:00Z,28.2670,-88.3990,79.6,348.0,10.5,-4.7,'1111122,1111122,1111122' 
ADCP,ioos:station:wmo:42387:1,2014-05-02T05:59:00Z,28.2670,-88.3990,79.6,1.0,7.9,-2.9,'1111122,1111122,1111122' 
ADCP,ioos:station:wmo:42387:1,2014-05-02T06:59:00Z,28.2670,-88.3990,79.6,335.0,6.6,-3.3,'1111122,1111122,1111122' 
ADCP,ioos:station:wmo:42387:1,2014-05-02T07:59:00Z,28.2670,-88.3990,79.6,338.0,7.3,-2.9,'1111122,1111122,1111122' 
ADCP,ioos:station:wmo:42387:1,2014-05-02T09:39:00Z,28.2670,-88.3990,79.6,340.0,6.5,-1.9,'1111122,1111122,1111122' 
ADCP,ioos:station:wmo:42387:1,2014-05-02T10:59:00Z,28.2670,-88.3990,79.6,8.0,4.5,-1.1,'1111122,1111122,1111122' 
ADCP,ioos:station:wmo:42387:1,2014-05-02T11:59:00Z,28.2670,-88.3990,79.6,39.0,5.6,-1.6,'1111122,1111122,1111122' 
ADCP,ioos:station:wmo:42387:1,2014-05-02T12:59:00Z,28.2670,-88.3990,79.6,137.0,2.5,-0.6,'1111122,1111122,1111122' 
ADCP,ioos:station:wmo:42387:1,2014-05-02T13:59:00Z,28.2670,-88.3990,79.6,97.0,3.2,-0.6,'1111122,1111122,1111122' 
ADCP,ioos:station:wmo:42387:1,2014-05-02T14:59:00Z,28.2670,-88.3990,79.6,135.0,3.5,1.7,'1111122,1111122,1111122' 
ADCP,ioos:station:wmo:42387:1,2014-05-02T16:59:00Z,28.2670,-88.3990,79.6,185.0,10.2,1.7,'1111122,1111122,1111122' 
ADCP,ioos:station:wmo:42387:1,2014-05-02T17:59:00Z,28.2670,-88.3990,79.6,188.0,8.0,0.6,'1111122,1111122,1111122' 
ADCP,ioos:station:wmo:42387:1,2014-05-02T18:59:00Z,28.2670,-88.3990,79.6,193.0,7.8,-0.2,'1111122,1111122,1111122' 
ADCP,ioos:station:wmo:42387:1,2014-05-02T20:59:00Z,28.2670,-88.3990,79.6,191.0,4.6,-0.5,'1111122,1111122,1111122' 
ADCP,ioos:station:wmo:42387:1,2014-05-02T21:59:00Z,28.2670,-88.3990,79.6,245.0,5.7,-2.3,'1111122,1111122,1111122' 
ADCP,ioos:station:wmo:42387:1,2014-05-02T22:59:00Z,28.2670,-88.3990,79.6,262.0,5.1,-0.8,'1111122,1111122,1111122' 
ADCP,ioos:station:wmo:42387:1,2014-05-03T00:19:00Z,28.2670,-88.3990,79.6,207.0,0.9,-1.3,'1111122,1111122,1111122' 
ADCP,ioos:station:wmo:42387:1,2014-05-03T00:59:00Z,28.2670,-88.3990,79.6,333.0,6.9,-4.0,'1111122,1111122,1111122' 
ADCP,ioos:station:wmo:42387:1,2014-05-03T02:19:00Z,28.2670,-88.3990,79.6,292.0,4.6,-3.0,'1111122,1111122,1111122' 
ADCP,ioos:station:wmo:42387:1,2014-05-03T02:59:00Z,28.2670,-88.3990,79.6,276.0,3.6,-2.7,'1111122,1111122,1111122' 
ADCP,ioos:station:wmo:42387:1,2014-05-03T03:59:00Z,28.2670,-88.3990,79.6,259.0,6.1,-3.6,'1111122,1111122,1111122' 
ADCP,ioos:station:wmo:42387:1,2014-05-03T04:59:00Z,28.2670,-88.3990,79.6,278.0,6.4,-4.8,'1111122,1111122,1111122' 
ADCP,ioos:station:wmo:42387:1,2014-05-03T05:59:00Z,28.2670,-88.3990,79.6,292.0,7.1,-5.6,'1111122,1111122,1111122' 
ADCP,ioos:station:wmo:42387:1,2014-05-03T07:59:00Z,28.2670,-88.3990,79.6,282.0,8.4,-5.4,'1111122,1111122,1111122' 
ADCP,ioos:station:wmo:42387:1,2014-05-03T08:59:00Z,28.2670,-88.3990,79.6,286.0,9.2,-4.4,'1111122,1111122,1111122' 
ADCP,ioos:station:wmo:42387:1,2014-05-03T10:19:00Z,28.2670,-88.3990,79.6,288.0,10.3,-3.6,'1111122,1111122,1111122' 
ADCP,ioos:station:wmo:42387:1,2014-05-03T10:59:00Z,28.2670,-88.3990,79.6,283.0,1.3,-3.5,'1111122,1111122,1111122' 
ADCP,ioos:station:wmo:42387:1,2014-05-03T12:19:00Z,28.2670,-88.3990,79.6,24.0,1.7,-4.3,'1111122,1111122,1111122' 
ADCP,ioos:station:wmo:42387:1,2014-05-03T13:19:00Z,28.2670,-88.3990,79.6,264.0,2.7,-2.1,'1111122,1111122,1111122' 
ADCP,ioos:station:wmo:42387:1,2014-05-03T13:59:00Z,28.2670,-88.3990,79.6,162.0,2.5,-0.5,'1111122,1111122,1111122' 
ADCP,ioos:station:wmo:42387:1,2014-05-03T14:59:00Z,28.2670,-88.3990,79.6,169.0,5.3,-0.7,'1111122,1111122,1111122' 
ADCP,ioos:station:wmo:42387:1,2014-05-03T15:59:00Z,28.2670,-88.3990,79.6,166.0,5.4,0.2,'1111122,1111122,1111122' 
ADCP,ioos:station:wmo:42387:1,2014-05-03T16:59:00Z,28.2670,-88.3990,79.6,187.0,3.8,-2.9,'1111122,1111122,1111122' 
ADCP,ioos:station:wmo:42387:1,2014-05-03T18:19:00Z,28.2670,-88.3990,79.6,222.0,3.0,-3.4,'1111122,1111122,1111122' 
ADCP,ioos:station:wmo:42387:1,2014-05-03T18:59:00Z,28.2670,-88.3990,79.6,216.0,3.1,-3.6,'1111122,1111122,1111122' 
ADCP,ioos:station:wmo:42387:1,2014-05-03T19:59:00Z,28.2670,-88.3990,79.6,210.0,4.3,-2.8,'1111122,1111122,1111122' 
ADCP,ioos:station:wmo:42387:1,2014-05-03T20:59:00Z,28.2670,-88.3990,79.6,228.0,2.7,-2.4,'1111122,1111122,1111122' 
ADCP,ioos:station:wmo:42387:1,2014-05-03T22:59:00Z,28.2670,-88.3990,79.6,186.0,4.0,-1.8,'1111122,1111122,1111122' 
ADCP,ioos:station:wmo:42387:1,2014-05-03T23:59:00Z,28.2670,-88.3990,79.6,218.0,3.3,-3.3,'1111122,1111122,1111122' 
ADCP,ioos:station:wmo:42387:1,2014-05-04T00:59:00Z,28.2670,-88.3990,79.6,314.0,5.9,-6.8,'1111122,1111122,1111122' 
ADCP,ioos:station:wmo:42387:1,2014-05-04T02:19:00Z,28.2670,-88.3990,79.6,253.0,9.0,-5.3,'1111122,1111122,1111122' 
ADCP,ioos:station:wmo:42387:1,2014-05-04T03:39:00Z,28.2670,-88.3990,79.6,242.0,8.4,-4.3,'1111122,1111122,1111122' 
ADCP,ioos:station:wmo:42387:1,2014-05-04T05:05:00Z,28.2670,-88.3990,79.6,249.0,12.2,-4.7,'1111122,1111122,1111122' 
ADCP,ioos:station:wmo:42387:1,2014-05-04T05:45:00Z,28.2670,-88.3990,79.6,251.0,11.8,-4.9,'1111122,1111122,1111122' 
ADCP,ioos:station:wmo:42387:1,2014-05-04T07:05:00Z,28.2670,-88.3990,79.6,258.0,13.7,-4.2,'1111122,1111122,1111122' 
ADCP,ioos:station:wmo:42387:1,2014-05-04T08:05:00Z,28.2670,-88.3990,79.6,278.0,13.1,-4.0,'1111122,1111122,1111122' 
ADCP,ioos:station:wmo:42387:1,2014-05-04T09:05:00Z,28.2670,-88.3990,79.6,276.0,14.3,-4.3,'1111122,1111122,1111122' 
ADCP,ioos:station:wmo:42387:1,2014-05-04T10:05:00Z,28.2670,-88.3990,79.6,286.0,14.0,-3.9,'1111122,1111122,1111122' 
ADCP,ioos:station:wmo:42387:1,2014-05-04T11:05:00Z,28.2670,-88.3990,79.6,295.0,11.5,-6.4,'1111122,1111122,1111122' 
ADCP,ioos:station:wmo:42387:1,2014-05-04T12:05:00Z,28.2670,-88.3990,79.6,318.0,12.4,-8.4,'1111122,1111122,1111122' 
ADCP,ioos:station:wmo:42387:1,2014-05-04T13:05:00Z,28.2670,-88.3990,79.6,319.0,13.7,-9.6,'1111122,1111122,1111122' 
ADCP,ioos:station:wmo:42387:1,2014-05-04T14:05:00Z,28.2670,-88.3990,79.6,344.0,8.1,-7.7,'1111122,1111122,1111122' 
ADCP,ioos:station:wmo:42387:1,2014-05-04T15:05:00Z,28.2670,-88.3990,79.6,338.0,10.8,-6.2,'1111122,1111122,1111122' 
ADCP,ioos:station:wmo:42387:1,2014-05-04T16:05:00Z,28.2670,-88.3990,79.6,358.0,7.7,-5.3,'1111122,1111122,1111122' 
ADCP,ioos:station:wmo:42387:1,2014-05-04T17:05:00Z,28.2670,-88.3990,79.6,336.0,4.7,-2.6,'1111122,1111122,1111122' 
ADCP,ioos:station:wmo:42387:1,2014-05-04T20:05:00Z,28.2670,-88.3990,79.6,42.0,1.2,-1.8,'1111122,1111122,1111122' 
ADCP,ioos:station:wmo:42387:1,2014-05-04T22:05:00Z,28.2670,-88.3990,79.6,298.0,2.4,0.0,'1111122,1111122,1114422' 
ADCP,ioos:station:wmo:42387:1,2014-05-04T23:05:00Z,28.2670,-88.3990,79.6,156.0,2.2,-0.4,'1111122,1111122,1111122' 
ADCP,ioos:station:wmo:42387:1,2014-05-05T00:05:00Z,28.2670,-88.3990,79.6,126.0,6.2,-0.8,'1111122,1111122,1111122' 
ADCP,ioos:station:wmo:42387:1,2014-05-05T01:05:00Z,28.2670,-88.3990,79.6,303.0,6.6,-5.4,'1111122,1111122,1111122' 
ADCP,ioos:station:wmo:42387:1,2014-05-05T02:05:00Z,28.2670,-88.3990,79.6,288.0,6.4,-5.7,'1111122,1111122,1111122' 
ADCP,ioos:station:wmo:42387:1,2014-05-05T03:05:00Z,28.2670,-88.3990,79.6,260.0,5.4,-3.6,'1111122,1111122,1111122' 
ADCP,ioos:station:wmo:42387:1,2014-05-05T04:05:00Z,28.2670,-88.3990,79.6,250.0,5.4,-3.9,'1111122,1111122,1111122' 
ADCP,ioos:station:wmo:42387:1,2014-05-05T05:05:00Z,28.2670,-88.3990,79.6,247.0,7.3,-4.4,'1111122,1111122,1111122' 
ADCP,ioos:station:wmo:42387:1,2014-05-05T06:05:00Z,28.2670,-88.3990,79.6,230.0,8.9,-3.3,'1111122,1111122,1111122' 
ADCP,ioos:station:wmo:42387:1,2014-05-05T08:05:00Z,28.2670,-88.3990,79.6,233.0,8.9,-3.6,'1111122,1111122,1111122' 
ADCP,ioos:station:wmo:42387:1,2014-05-05T09:05:00Z,28.2670,-88.3990,79.6,232.0,8.5,-3.4,'1111122,1111122,1111122' 
ADCP,ioos:station:wmo:42387:1,2014-05-05T10:05:00Z,28.2670,-88.3990,79.6,247.0,7.8,-5.0,'1111122,1111122,1111122' 
ADCP,ioos:station:wmo:42387:1,2014-05-05T11:05:00Z,28.2670,-88.3990,79.6,212.0,4.9,-3.4,'1111122,1111122,1111122' 
ADCP,ioos:station:wmo:42387:1,2014-05-05T12:05:00Z,28.2670,-88.3990,79.6,209.0,4.8,-5.1,'1111122,1111122,1111122' 
ADCP,ioos:station:wmo:42387:1,2014-05-05T13:05:00Z,28.2670,-88.3990,79.6,268.0,2.5,-5.1,'1111122,1111122,1111122' 
ADCP,ioos:station:wmo:42387:1,2014-05-05T14:05:00Z,28.2670,-88.3990,79.6,219.0,4.0,-5.4,'1111122,1111122,1111122' 
ADCP,ioos:station:wmo:42387:1,2014-05-05T15:05:00Z,28.2670,-88.3990,79.6,184.0,6.0,-2.9,'1111122,1111122,1111122' 
ADCP,ioos:station:wmo:42387:1,2014-05-05T15:45:00Z,28.2670,-88.3990,79.6,203.0,4.4,-2.8,'1111122,1111122,1111122' 
ADCP,ioos:station:wmo:42387:1,2014-05-05T16:45:00Z,28.2670,-88.3990,79.6,191.0,4.6,-1.2,'1111122,1111122,1111122' 
ADCP,ioos:station:wmo:42387:1,2014-05-05T18:07:00Z,28.2670,-88.3990,79.6,189.0,5.1,-1.1,'1111122,1111122,1111122' 
ADCP,ioos:station:wmo:42387:1,2014-05-05T18:27:00Z,28.2670,-88.3990,79.6,180.0,4.8,-1.8,'1111122,1111122,1111122' 
ADCP,ioos:station:wmo:42387:1,2014-05-06T11:48:00Z,28.2670,-88.3990,79.6,150.0,17.2,-4.7,'1111122,1111122,1111122' 
ADCP,ioos:station:wmo:42387:1,2014-05-06T13:51:00Z,28.2670,-88.3990,79.6,174.0,12.6,-8.2,'1111122,1111122,1111122' 
ADCP,ioos:station:wmo:42387:1,2014-05-06T14:59:00Z,28.2670,-88.3990,79.6,182.0,15.7,-6.6,'1111122,1111122,1111122' 
ADCP,ioos:station:wmo:42387:1,2014-05-06T16:06:00Z,28.2670,-88.3990,79.6,201.0,14.6,-10.6,'1111122,1111122,1111122' 
ADCP,ioos:station:wmo:42387:1,2014-05-06T17:45:00Z,28.2670,-88.3990,79.6,212.0,15.1,-11.4,'1111122,1111122,1111122' 
ADCP,ioos:station:wmo:42387:1,2014-05-06T19:13:00Z,28.2670,-88.3990,79.6,220.0,12.9,-10.5,'1111122,1111122,1111122' 
ADCP,ioos:station:wmo:42387:1,2014-05-06T22:41:00Z,28.2670,-88.3990,79.6,229.0,13.2,-8.9,'1111122,1111122,1111122' 
ADCP,ioos:station:wmo:42387:1,2014-05-07T00:16:00Z,28.2670,-88.3990,79.6,215.0,8.4,-5.2,'1111122,1111122,1111122' 
ADCP,ioos:station:wmo:42387:1,2014-05-07T00:56:00Z,28.2670,-88.3990,79.6,294.0,7.8,-8.6,'1111122,1111122,1111122' 
ADCP,ioos:station:wmo:42387:1,2014-05-07T02:16:00Z,28.2670,-88.3990,79.6,279.0,9.2,-6.6,'1111122,1111122,1111122' 
ADCP,ioos:station:wmo:42387:1,2014-05-07T02:56:00Z,28.2670,-88.3990,79.6,290.0,8.7,-6.6,'1111122,1111122,1111122' 
ADCP,ioos:station:wmo:42387:1,2014-05-07T03:56:00Z,28.2670,-88.3990,79.6,259.0,7.4,-4.9,'1111122,1111122,1111122' 
ADCP,ioos:station:wmo:42387:1,2014-05-07T04:56:00Z,28.2670,-88.3990,79.6,260.0,7.1,-4.0,'1111122,1111122,1111122' 
ADCP,ioos:station:wmo:42387:1,2014-05-07T05:36:00Z,28.2670,-88.3990,79.6,246.0,4.9,-2.5,'1111122,1111122,1111122' 
ADCP,ioos:station:wmo:42387:1,2014-05-07T06:56:00Z,28.2670,-88.3990,79.6,235.0,1.6,-1.5,'1111122,1111122,1111122' 
ADCP,ioos:station:wmo:42387:1,2014-05-07T07:56:00Z,28.2670,-88.3990,79.6,222.0,2.8,-2.0,'1111122,1111122,1111122' 
ADCP,ioos:station:wmo:42387:1,2014-05-07T08:56:00Z,28.2670,-88.3990,79.6,206.0,3.0,-4.4,'1111122,1111122,1111122' 
ADCP,ioos:station:wmo:42387:1,2014-05-07T10:16:00Z,28.2670,-88.3990,79.6,154.0,3.2,-6.6,'1111122,1111122,1111122' 
ADCP,ioos:station:wmo:42387:1,2014-05-07T10:56:00Z,28.2670,-88.3990,79.7,117.0,10.2,-6.4,'1111122,1111122,1111122' 
ADCP,ioos:station:wmo:42387:1,2014-05-07T11:56:00Z,28.2670,-88.3990,79.7,133.0,15.2,-9.1,'1111122,1111122,1111122' 
ADCP,ioos:station:wmo:42387:1,2014-05-07T13:16:00Z,28.2670,-88.3990,79.7,162.0,11.0,-9.3,'1111122,1111122,1111122' 
ADCP,ioos:station:wmo:42387:1,2014-05-07T13:36:00Z,28.2670,-88.3990,79.6,176.0,14.4,-7.7,'1111122,1111122,1111122' 
ADCP,ioos:station:wmo:42387:1,2014-05-07T16:03:00Z,28.2670,-88.3990,79.6,188.0,16.2,-7.9,'1111122,1111122,1111122' 
ADCP,ioos:station:wmo:42387:1,2014-05-07T17:03:00Z,28.2670,-88.3990,79.6,183.0,15.4,-9.8,'1111122,1111122,1111122' 
ADCP,ioos:station:wmo:42387:1,2014-05-07T18:03:00Z,28.2670,-88.3990,79.6,191.0,18.6,-9.2,'1111122,1111122,1111122' 
ADCP,ioos:station:wmo:42387:1,2014-05-07T18:55:00Z,28.2670,-88.3990,79.6,198.0,22.8,-7.9,'1111122,1111122,1111122' 
ADCP,ioos:station:wmo:42387:1,2014-05-07T19:55:00Z,28.2670,-88.3990,79.6,202.0,21.6,-8.6,'1111122,1111122,1111122' 
ADCP,ioos:station:wmo:42387:1,2014-05-07T20:55:00Z,28.2670,-88.3990,79.6,208.0,20.9,-9.8,'1111122,1111122,1111122' 
ADCP,ioos:station:wmo:42387:1,2014-05-07T21:55:00Z,28.2670,-88.3990,79.6,212.0,17.4,-10.2,'1111122,1111122,1111122' 
ADCP,ioos:station:wmo:42387:1,2014-05-07T22:55:00Z,28.2670,-88.3990,79.6,221.0,19.3,-11.0,'1111122,1111122,1111122' 
ADCP,ioos:station:wmo:42387:1,2014-05-08T00:00:00Z,28.2670,-88.3990,79.6,218.0,13.0,-9.0,'1111122,1111122,1111122' 
ADCP,ioos:station:wmo:42387:1,2014-05-08T01:00:00Z,28.2670,-88.3990,79.6,262.0,14.3,-8.1,'1111122,1111122,1111122' 
ADCP,ioos:station:wmo:42387:1,2014-05-08T02:00:00Z,28.2670,-88.3990,79.6,292.0,14.9,-8.3,'1111122,1111122,1111122' 
ADCP,ioos:station:wmo:42387:1,2014-05-08T03:00:00Z,28.2670,-88.3990,79.6,294.0,12.9,-8.0,'1111122,1111122,1111122' 
ADCP,ioos:station:wmo:42387:1,2014-05-08T04:00:00Z,28.2670,-88.3990,79.6,283.0,9.8,-6.4,'1111122,1111122,1111122' 
ADCP,ioos:station:wmo:42387:1,2014-05-08T05:00:00Z,28.2670,-88.3990,79.6,308.0,11.0,-6.7,'1111122,1111122,1111122' 
ADCP,ioos:station:wmo:42387:1,2014-05-08T06:00:00Z,28.2670,-88.3990,79.6,322.0,9.3,-5.9,'1111122,1111122,1111122' 
ADCP,ioos:station:wmo:42387:1,2014-05-08T07:00:00Z,28.2670,-88.3990,79.6,338.0,5.4,-3.3,'1111122,1111122,1111122' 
ADCP,ioos:station:wmo:42387:1,2014-05-08T09:00:00Z,28.2670,-88.3990,79.6,39.0,4.6,-2.3,'1111122,1111122,1111122' 
ADCP,ioos:station:wmo:42387:1,2014-05-08T10:00:00Z,28.2670,-88.3990,79.6,101.0,3.3,-2.9,'1111122,1111122,1111122' 
ADCP,ioos:station:wmo:42387:1,2014-05-08T11:00:00Z,28.2670,-88.3990,79.6,111.0,14.2,-3.2,'1111122,1111122,1111122' 
ADCP,ioos:station:wmo:42387:1,2014-05-08T12:00:00Z,28.2670,-88.3990,79.6,106.0,17.4,-7.4,'1111122,1111122,1111122' 
ADCP,ioos:station:wmo:42387:1,2014-05-08T13:11:00Z,28.2670,-88.3990,79.6,117.0,18.6,-6.9,'1111122,1111122,1111122' 
ADCP,ioos:station:wmo:42387:1,2014-05-08T14:06:00Z,28.2670,-88.3990,79.6,125.0,17.8,-8.5,'1111122,1111122,1111122' 
ADCP,ioos:station:wmo:42387:1,2014-05-08T15:06:00Z,28.2670,-88.3990,79.6,132.0,21.2,-6.9,'1111122,1111122,1111122' 
ADCP,ioos:station:wmo:42387:1,2014-05-08T15:53:00Z,28.2670,-88.3990,79.6,133.0,23.4,-7.4,'1111122,1111122,1111122' 
ADCP,ioos:station:wmo:42387:1,2014-05-08T16:53:00Z,28.2670,-88.3990,79.6,136.0,26.4,-8.4,'1111122,1111122,1111122' 
ADCP,ioos:station:wmo:42387:1,2014-05-08T19:54:00Z,28.2670,-88.3990,79.6,186.0,26.0,-4.7,'1111122,1111122,1111122' 
ADCP,ioos:station:wmo:42387:1,2014-05-08T21:14:00Z,28.2670,-88.3990,79.6,198.0,26.7,-5.7,'1111122,1111122,1111122' 
ADCP,ioos:station:wmo:42387:1,2014-05-08T21:54:00Z,28.2670,-88.3990,79.6,194.0,24.1,-5.9,'1111122,1111122,1111122' 
ADCP,ioos:station:wmo:42387:1,2014-05-08T23:14:00Z,28.2670,-88.3990,79.6,202.0,22.7,-7.1,'1111122,1111122,1111122' 
ADCP,ioos:station:wmo:42387:1,2014-05-08T23:54:00Z,28.2670,-88.3990,79.6,203.0,21.4,-6.2,'1111122,1111122,1111122' 
ADCP,ioos:station:wmo:42387:1,2014-05-09T00:54:00Z,28.2670,-88.3990,79.6,246.0,15.5,-11.8,'1111122,1111122,1111122' 
ADCP,ioos:station:wmo:42387:1,2014-05-09T01:54:00Z,28.2670,-88.3990,79.6,256.0,16.1,-8.9,'1111122,1111122,1111122' 
ADCP,ioos:station:wmo:42387:1,2014-05-09T02:54:00Z,28.2670,-88.3990,79.6,248.0,11.3,-6.5,'1111122,1111122,1111122' 
ADCP,ioos:station:wmo:42387:1,2014-05-09T03:54:00Z,28.2670,-88.3990,79.6,237.0,10.3,-5.1,'1111122,1111122,1111122' 
ADCP,ioos:station:wmo:42387:1,2014-05-09T05:14:00Z,28.2670,-88.3990,79.6,233.0,6.3,-4.1,'1111122,1111122,1111122' 
ADCP,ioos:station:wmo:42387:1,2014-05-09T05:34:00Z,28.2670,-88.3990,79.6,245.0,4.4,-3.4,'1111122,1111122,1111122' 
ADCP,ioos:station:wmo:42387:1,2014-05-09T07:14:00Z,28.2670,-88.3990,79.6,216.0,2.4,-2.1,'1111122,1111122,1111122' 
ADCP,ioos:station:wmo:42387:1,2014-05-09T07:54:00Z,28.2670,-88.3990,79.6,180.0,0.7,-2.1,'1111122,1111122,1111122' 
ADCP,ioos:station:wmo:42387:1,2014-05-09T08:54:00Z,28.2670,-88.3990,79.6,93.0,3.4,-2.1,'1111122,1111122,1111122' 
ADCP,ioos:station:wmo:42387:1,2014-05-09T10:14:00Z,28.2670,-88.3990,79.6,88.0,7.3,-3.7,'1111122,1111122,1111122' 
ADCP,ioos:station:wmo:42387:1,2014-05-09T10:54:00Z,28.2670,-88.3990,79.6,95.0,15.4,-4.3,'1111122,1111122,1111122' 
ADCP,ioos:station:wmo:42387:1,2014-05-09T11:54:00Z,28.2670,-88.3990,79.6,119.0,17.1,-3.6,'1111122,1111122,1111122' 
ADCP,ioos:station:wmo:42387:1,2014-05-09T12:54:00Z,28.2670,-88.3990,79.6,109.0,14.8,-5.1,'1111122,1111122,1111122' 
ADCP,ioos:station:wmo:42387:1,2014-05-09T13:54:00Z,28.2670,-88.3990,79.6,124.0,19.1,-5.9,'1111122,1111122,1111122' 
ADCP,ioos:station:wmo:42387:1,2014-05-09T15:05:00Z,28.2670,-88.3990,79.6,130.0,21.5,-6.8,'1111122,1111122,1111122' 
ADCP,ioos:station:wmo:42387:1,2014-05-09T16:05:00Z,28.2670,-88.3990,79.6,144.0,25.8,-4.7,'1111122,1111122,1111122' 
ADCP,ioos:station:wmo:42387:1,2014-05-09T17:05:00Z,28.2670,-88.3990,79.6,143.0,27.4,-5.7,'1111122,1111122,1111122' 
ADCP,ioos:station:wmo:42387:1,2014-05-09T18:05:00Z,28.2670,-88.3990,79.6,145.0,29.7,-5.2,'1111122,1111122,1111122' 
ADCP,ioos:station:wmo:42387:1,2014-05-09T19:05:00Z,28.2670,-88.3990,79.6,144.0,28.3,-8.0,'1111122,1111122,1111122' 
ADCP,ioos:station:wmo:42387:1,2014-05-09T20:05:00Z,28.2670,-88.3990,79.6,167.0,31.3,-7.7,'1111122,1111122,1111122' 
ADCP,ioos:station:wmo:42387:1,2014-05-09T22:05:00Z,28.2670,-88.3990,79.6,184.0,34.7,-7.7,'1111122,1111122,1111122' 
ADCP,ioos:station:wmo:42387:1,2014-05-09T23:05:00Z,28.2670,-88.3990,79.6,192.0,38.5,-7.2,'1111122,1111122,1111122' 
ADCP,ioos:station:wmo:42387:1,2014-05-10T00:05:00Z,28.2670,-88.3990,79.6,188.0,37.2,-8.1,'1111122,1111122,1111122' 
ADCP,ioos:station:wmo:42387:1,2014-05-10T02:05:00Z,28.2670,-88.3990,79.6,218.0,23.8,-7.3,'1111122,1111122,1111122' 
ADCP,ioos:station:wmo:42387:1,2014-05-10T03:05:00Z,28.2670,-88.3990,79.6,223.0,21.4,-6.8,'1111122,1111122,1111122' 
ADCP,ioos:station:wmo:42387:1,2014-05-10T04:05:00Z,28.2670,-88.3990,79.6,234.0,18.0,-6.9,'1111122,1111122,1111122' 
ADCP,ioos:station:wmo:42387:1,2014-05-10T05:05:00Z,28.2670,-88.3990,79.6,234.0,14.8,-6.1,'1111122,1111122,1111122' 
ADCP,ioos:station:wmo:42387:1,2014-05-10T06:05:00Z,28.2670,-88.3990,79.6,233.0,15.6,-7.4,'1111122,1111122,1111122' 
ADCP,ioos:station:wmo:42387:1,2014-05-10T07:05:00Z,28.2670,-88.3990,79.6,205.0,9.8,-5.5,'1111122,1111122,1111122' 
ADCP,ioos:station:wmo:42387:1,2014-05-10T08:05:00Z,28.2670,-88.3990,79.6,260.0,3.4,-5.1,'1111122,1111122,1111122' 
ADCP,ioos:station:wmo:42387:1,2014-05-10T10:05:00Z,28.2670,-88.3990,79.6,93.0,3.8,-4.0,'1111122,1111122,1111122' 
ADCP,ioos:station:wmo:42387:1,2014-05-10T11:05:00Z,28.2670,-88.3990,79.6,106.0,9.4,-3.1,'1111122,1111122,1111122' 
ADCP,ioos:station:wmo:42387:1,2014-05-10T12:05:00Z,28.2670,-88.3990,79.6,115.0,10.7,-2.2,'1111122,1111122,1111122' 
ADCP,ioos:station:wmo:42387:1,2014-05-10T13:05:00Z,28.2670,-88.3990,79.6,124.0,12.6,-5.5,'1111122,1111122,1111122' 
ADCP,ioos:station:wmo:42387:1,2014-05-10T14:05:00Z,28.2670,-88.3990,79.6,123.0,17.4,-4.9,'1111122,1111122,1111122' 
ADCP,ioos:station:wmo:42387:1,2014-05-10T15:05:00Z,28.2670,-88.3990,79.6,127.0,16.3,-4.6,'1111122,1111122,1111122' 
ADCP,ioos:station:wmo:42387:1,2014-05-10T16:05:00Z,28.2670,-88.3990,79.6,135.0,19.4,-5.1,'1111122,1111122,1111122' 
ADCP,ioos:station:wmo:42387:1,2014-05-10T17:05:00Z,28.2670,-88.3990,79.6,132.0,21.5,-5.0,'1111122,1111122,1111122' 
ADCP,ioos:station:wmo:42387:1,2014-05-10T18:05:00Z,28.2670,-88.3990,79.6,137.0,25.3,-4.8,'1111122,1111122,1111122' 
ADCP,ioos:station:wmo:42387:1,2014-05-10T19:05:00Z,28.2670,-88.3990,79.6,138.0,29.3,-4.1,'1111122,1111122,1111122' 
ADCP,ioos:station:wmo:42387:1,2014-05-10T21:05:00Z,28.2670,-88.3990,79.6,143.0,28.9,-7.2,'1111122,1111122,1111122' 
ADCP,ioos:station:wmo:42387:1,2014-05-10T22:05:00Z,28.2670,-88.3990,79.6,156.0,29.2,-7.0,'1111122,1111122,1111122' 
ADCP,ioos:station:wmo:42387:1,2014-05-11T00:05:00Z,28.2670,-88.3990,79.6,165.0,31.0,-7.8,'1111122,1111122,1111122' 
ADCP,ioos:station:wmo:42387:1,2014-05-11T02:05:00Z,28.2670,-88.3990,79.6,191.0,23.3,-7.1,'1111122,1111122,1111122' 
ADCP,ioos:station:wmo:42387:1,2014-05-11T03:05:00Z,28.2670,-88.3990,79.6,194.0,22.2,-5.9,'1111122,1111122,1111122' 
ADCP,ioos:station:wmo:42387:1,2014-05-11T04:05:00Z,28.2670,-88.3990,79.6,203.0,18.7,-5.0,'1111122,1111122,1111122' 
ADCP,ioos:station:wmo:42387:1,2014-05-11T05:05:00Z,28.2670,-88.3990,79.6,195.0,13.5,-4.6,'1111122,1111122,1111122' 
ADCP,ioos:station:wmo:42387:1,2014-05-11T05:45:00Z,28.2670,-88.3990,79.6,198.0,12.1,-3.7,'1111122,1111122,1111122' 
ADCP,ioos:station:wmo:42387:1,2014-05-11T07:05:00Z,28.2670,-88.3990,79.6,195.0,10.2,-1.5,'1111122,1111122,1111122' 
ADCP,ioos:station:wmo:42387:1,2014-05-11T08:05:00Z,28.2670,-88.3990,79.6,189.0,10.1,-1.5,'1111122,1111122,1111122' 
ADCP,ioos:station:wmo:42387:1,2014-05-11T10:05:00Z,28.2670,-88.3990,79.6,169.0,9.6,-1.9,'1111122,1111122,1111122' 
ADCP,ioos:station:wmo:42387:1,2014-05-11T11:05:00Z,28.2670,-88.3990,79.6,137.0,16.6,-2.1,'1111122,1111122,1111122' 